Regional Weather Roundup
Issued by NWS

Home | Current Version | Previous Version | Text Only | Print | Product List | Glossary On
Versions: 1 2 3 4 5 6 7 8 9 10 11 12 13 14 15 16 17 18 19 20 21 22 23 24 25 26 27 28 29 30 31 32 33 34 35 36 37 38 39 40 41 42 43 44 45 46 47 48 49 50
000
ASUS43 KLSX 231710
RWRMO

WEATHER SUMMARY FOR MISSOURI
NATIONAL WEATHER SERVICE SPRINGFIELD MO
1200 PM CDT THU MAR 23 2017

NOTE: "FAIR" INDICATES FEW OR NO CLOUDS BELOW 12,000 FEET WITH NO
       SIGNIFICANT WEATHER AND/OR OBSTRUCTIONS TO VISIBILITY.
       CURRENT SKY AND/OR WEATHER CONDITIONS ARE NOT AVAILABLE FOR
       CHILLICOTHE AND FARMINGTON.

MOZ001>031-035>038-043-044-053-054-231800-
...NORTHERN AND WESTERN MISSOURI...

CITY           SKY/WX    TMP DP  RH WIND       PRES   REMARKS
KANSAS CTY INT PTSUNNY   65  44  46 S20G25    29.99F
KANSAS C DTWN  SUNNY     66  43  43 S15G22    30.00F
LEE`S SUMMIT   SUNNY     64  44  48 S17G26    30.02F
ST JOSEPH      SUNNY     65  45  48 S20       29.96F
CHILLICOTHE      N/A     55  34  45 SE14      30.06F
KIRKSVILLE     CLOUDY    46  34  62 SE17G26   30.12F

$$
MOZ066>068-077>081-088>096-101>105-231800-
...SOUTHWEST MISSOURI...

CITY           SKY/WX    TMP DP  RH WIND       PRES   REMARKS
SPRINGFIELD    MOSUNNY   62  41  46 S23       30.11F
JOPLIN         SUNNY     69  49  48 S20       30.07F
BRANSON        PTSUNNY   63  41  45 S9G16     30.17F

$$
MOZ032>034-039>042-045>050-055>058-069>072-231800-
...CENTRAL MISSOURI...

CITY           SKY/WX    TMP DP  RH WIND       PRES   REMARKS
COLUMBIA       SUNNY     59  34  39 SE15      30.13F
JEFFERSON CITY SUNNY     62  31  31 SE13G21   30.14F
ROLLA          SUNNY     62  34  35 S18G26    30.14F
SEDALIA        SUNNY     69  41  36 S16G23    30.09F
WHITEMAN AFB   MOSUNNY   65  41  40 S15       30.05F
WARRENSBURG    MOSUNNY   63  39  42 S16G23    30.05F
OSAGE BEACH      N/A    N/A N/A N/A S15       30.12F

$$
MOZ051-052-059>065-231800-
...EAST CENTRAL MISSOURI...

CITY           SKY/WX    TMP DP  RH WIND       PRES   REMARKS
ST LOUIS INTL  CLOUDY    41  37  86 E15       30.26F
SPIRIT OF STL  CLOUDY    43  37  79 SE9       30.24F
ST CHARLES     CLOUDY    39  37  92 E20       30.26F WCI  29

$$
MOZ072>076-082>087-097>100-106>115-231800-
...SOUTH CENTRAL AND SOUTHEAST MISSOURI...

CITY           SKY/WX    TMP DP  RH WIND       PRES   REMARKS
CAPE GIRARDEAU PTSUNNY   50  33  52 SE9       30.29F
FARMINGTON     SUNNY     53  30  41 SE13      30.24F
POPLAR BLUFF   SUNNY     54  37  52 SE8       30.27F
WEST PLAINS    SUNNY     61  35  37 S13       30.20F

$$



USA.gov is the U.S. government's official web portal to all federal, state and local government web resources and services.